Location: Deep Valley
(39.7548°N, 80.4695°W)
Time: 11:08:17
(UTC+00:00)

ISS - Pass Details

Date: 02 December 2020
Orbit: 418 x 419 km, 51.6° (Epoch: 18 January)

Event Time Altitude Azimuth Distance (km) Brightness Sun altitude
Rises 23:20:12 0° 314° (NW) 2,368 0.5 -15.5°
Reaches altitude 10° 23:22:58 10° 338° (NNW) 1,502 -0.9 -16.0°
Enters shadow 23:24:40 15° 8° (N) 1,231 -1.6 -16.3°
